User: anonymous   Login
Location: Appleton
(44.2618°N, 88.4157°W)
Time: 11:11:29
(UTC+00:00)
Language:

Courier 1B Rocket - Orbit

View from above orbital plane
View from above orbital plane
View from above satellite
View from above satellite

Ground track
Ground track

The orbit data is extracted from the following two-line orbital elements,

1 00059U 60013B   21059.94175165  .00000094  00000-0  47547-5 0  9994
2 00059  28.2510 340.6793 0189189 278.9150  79.0023 13.52982339981200
Epoch (UTC): 28 February 2021 22:36:07
Eccentricity: 0.0189189
inclination: 28.2510°
perigee height: 920 km
apogee height: 1202 km
right ascension of ascending node: 340.6793°
argument of perigee: 278.9150°
revolutions per day: 13.52982339
mean anomaly at epoch: 79.0023°
orbit number at epoch: 98120

The dashed part of the orbit path shows where the satellite is in the earth's shadow,  

DLR